Weather History for 03969 - September, 2012

Change the Weather History Date:

Tuesday, September 18, 2012

  Actual Average Record
Temperature  
Mean Temperature 49 °F -  
Max Temperature 56 °F 59 °F - ()
Min Temperature 42 °F 47 °F - ()
Degree Days  
Heating Degree Days 16    
Moisture  
Dew Point 42 °F    
Average Humidity 78    
Maximum Humidity 93    
Minimum Humidity 48    
Precipitation  
Precipitation 0.00 in 0.09 in - ()
Sea Level Pressure  
Sea Level Pressure 29.96 in    
Wind  
Wind Speed 14 mph ()    
Max Wind Speed 23 mph    
Max Gust Speed -    
Visibility 6.5 miles    
Events Rain    
T = Trace of Precipitation, MM = Missing Value Source: Averaged Metar Reports

Daily Weather History Graph

Daily Weather History Graph

Search for Another Location

Airport or City:

Trip Planner

Search our weather history database for the weather conditions in past years. The results will help you decide how hot, cold, wet, or windy it might be!

Date:

Astronomy

Sep. 18, 2012 Rise Set
Actual Time 7:04 AM IST 7:32 PM IST
Civil Twilight 6:29 AM IST 8:07 PM IST
Nautical Twilight 5:47 AM IST 8:49 PM IST
Astronomical Twilight 5:03 AM IST 9:33 PM IST
Moon 10:21 AM IST (9/18) 8:09 PM IST (9/18)
Length of Visible Light 13h 38m
Length of Day
12h 28m
Waxing Crescent, 7% of the Moon is Illuminated
Sep 18
Waxing Crescent
Sep 22
First Quarter
Sep 30
Full
Oct 8
Last Quarter
Oct 15
New

Hourly Weather History & Observations

Time (IST) Temp. Windchill Dew Point Humidity Pressure Visibility Wind Dir Wind Speed Gust Speed Precip Events Conditions
12:00 AM 48.2 °F - 46.4 °F 93% 29.77 in 6.2 mi WSW 13.8 mph - N/A   Partly Cloudy
12:30 AM 48.2 °F - 44.6 °F 87% 29.77 in 6.2 mi WSW 12.7 mph - N/A   Partly Cloudy
1:00 AM 48 °F - 45 °F 84% 29.80 in 25 mi WSW 13.4 mph - -   Partly Cloudy
1:00 AM 48.2 °F - 44.6 °F 87% 29.77 in 6.2 mi WSW 12.7 mph - N/A   Scattered Clouds
1:30 AM 48.2 °F - 44.6 °F 87% 29.80 in 6.2 mi WSW 13.8 mph - N/A   Partly Cloudy
2:00 AM 46.4 °F 40.4 °F 44.6 °F 93% 29.80 in 6.2 mi WSW 13.8 mph - N/A   Partly Cloudy
2:30 AM 46.4 °F 40.1 °F 44.6 °F 93% 29.80 in 6.2 mi West 15.0 mph - N/A   Partly Cloudy
3:00 AM 46.4 °F 40.1 °F 44.6 °F 93% 29.80 in 6.2 mi West 15.0 mph - N/A   Partly Cloudy
3:30 AM 46.4 °F 40.1 °F 44.6 °F 93% 29.80 in 6.2 mi West 15.0 mph - N/A   Partly Cloudy
4:00 AM 46.4 °F 40.4 °F 44.6 °F 93% 29.83 in 6.2 mi West 13.8 mph - N/A   Partly Cloudy
4:30 AM 44.6 °F 38.1 °F 42.8 °F 93% 29.83 in 6.2 mi West 13.8 mph - N/A   Partly Cloudy
5:00 AM 44.6 °F 38.1 °F 42.8 °F 93% 29.83 in 6.2 mi West 13.8 mph - N/A   Partly Cloudy
5:30 AM 44.6 °F 38.1 °F 42.8 °F 93% 29.83 in 6.2 mi West 13.8 mph - N/A   Partly Cloudy
6:00 AM 44.6 °F 37.8 °F 42.8 °F 93% 29.86 in 6.2 mi West 15.0 mph - N/A   Partly Cloudy
6:30 AM 44.6 °F 38.1 °F 42.8 °F 93% 29.86 in 6.2 mi West 13.8 mph - N/A   Partly Cloudy
7:00 AM 44 °F - 42 °F 89% 29.89 in 25 mi West 15.7 mph - -   Scattered Clouds
7:00 AM 42.8 °F 35.4 °F 41.0 °F 93% 29.86 in 6.2 mi West 15.0 mph - N/A   Partly Cloudy
7:30 AM 44.6 °F 38.1 °F 41.0 °F 87% 29.89 in 6.2 mi West 13.8 mph - N/A   Partly Cloudy
8:00 AM 44.6 °F 37.8 °F 41.0 °F 87% 29.89 in 6.2 mi West 15.0 mph - N/A   Partly Cloudy
8:30 AM 44.6 °F 37.4 °F 42.8 °F 93% 29.92 in 6.2 mi West 16.1 mph - N/A   Partly Cloudy
9:00 AM 46.4 °F 39.8 °F 42.8 °F 87% 29.92 in 6.2 mi West 16.1 mph - N/A   Partly Cloudy
9:30 AM 48.2 °F - 42.8 °F 82% 29.95 in 6.2 mi West 15.0 mph - N/A   Partly Cloudy
10:00 AM 50.0 °F - 42.8 °F 76% 29.95 in 6.2 mi West 17.3 mph - N/A   Partly Cloudy
10:30 AM 51.8 °F - 44.6 °F 76% 29.95 in 6.2 mi West 16.1 mph - N/A   Partly Cloudy
11:00 AM 51.8 °F - 42.8 °F 71% 29.95 in 6.2 mi West 19.6 mph - N/A   Partly Cloudy
11:30 AM 53.6 °F - 42.8 °F 67% 29.98 in 6.2 mi WNW 21.9 mph - N/A   Scattered Clouds
12:00 PM 53.6 °F - 42.8 °F 67% 29.98 in 6.2 mi WNW 21.9 mph - N/A   Scattered Clouds
12:30 PM 55.4 °F - 41.0 °F 58% 29.98 in 6.2 mi WNW 20.7 mph - N/A   Mostly Cloudy
1:00 PM 55 °F - 41 °F 48% 30.00 in 19 mi WNW 22.4 mph - -   Mostly Cloudy
1:00 PM 55.4 °F - 41.0 °F 58% 29.98 in 6.2 mi WNW 21.9 mph - N/A   Mostly Cloudy
1:30 PM 55.4 °F - 42.8 °F 63% 29.98 in 6.2 mi WNW 21.9 mph - N/A   Scattered Clouds
2:00 PM 55.4 °F - 41.0 °F 58% 30.01 in 6.2 mi WNW 19.6 mph - N/A   Scattered Clouds
2:30 PM 51.8 °F - 42.8 °F 71% 30.01 in 6.2 mi NW 16.1 mph - N/A   Partly Cloudy
3:00 PM 55.4 °F - 41.0 °F 58% 30.01 in 6.2 mi WNW 19.6 mph - N/A   Scattered Clouds
3:30 PM 55.4 °F - 42.8 °F 63% 30.01 in 6.2 mi NW 23.0 mph - N/A   Partly Cloudy
4:00 PM 55.4 °F - 41.0 °F 58% 30.04 in 6.2 mi WNW 21.9 mph - N/A   Partly Cloudy
4:30 PM 51.8 °F - 42.8 °F 71% 30.04 in 6.2 mi NW 17.3 mph - N/A   Partly Cloudy
5:00 PM 53.6 °F - 41.0 °F 62% 30.04 in 6.2 mi NW 17.3 mph - N/A   Partly Cloudy
5:30 PM 53.6 °F - 42.8 °F 67% 30.06 in 6.2 mi WNW 16.1 mph - N/A   Partly Cloudy
6:00 PM 53.6 °F - 42.8 °F 67% 30.06 in 6.2 mi WNW 18.4 mph - N/A   Scattered Clouds
6:30 PM 51.8 °F - 41.0 °F 67% 30.06 in 6.2 mi NW 15.0 mph - N/A   Partly Cloudy
7:00 PM 50 °F - 41 °F 62% 30.11 in 31 mi WNW 11.2 mph - - Rain Light Rain Showers
7:00 PM 50.0 °F - 41.0 °F 71% 30.09 in 6.2 mi NW 11.5 mph - N/A   Partly Cloudy
7:30 PM 50.0 °F - 41.0 °F 71% 30.09 in 6.2 mi WNW 13.8 mph - N/A   Partly Cloudy
8:00 PM 48.2 °F - 39.2 °F 71% 30.09 in 6.2 mi WNW 13.8 mph - N/A   Partly Cloudy
8:30 PM 46.4 °F 41.5 °F 39.2 °F 76% 30.12 in 6.2 mi WNW 10.4 mph - N/A   Partly Cloudy
9:00 PM 46.4 °F 41.1 °F 41.0 °F 81% 30.12 in 6.2 mi West 11.5 mph - N/A   Partly Cloudy
9:30 PM 46.4 °F 41.1 °F 41.0 °F 81% 30.12 in 6.2 mi West 11.5 mph - N/A   Partly Cloudy
10:00 PM 46.4 °F 40.7 °F 41.0 °F 81% 30.12 in 6.2 mi West 12.7 mph - N/A   Partly Cloudy
10:30 PM 44.6 °F 38.8 °F 41.0 °F 87% 30.15 in 6.2 mi West 11.5 mph - N/A   Partly Cloudy
11:00 PM 44.6 °F 38.4 °F 41.0 °F 87% 30.15 in 6.2 mi West 12.7 mph - N/A   Partly Cloudy
11:30 PM 44.6 °F 37.8 °F 41.0 °F 87% 30.15 in 6.2 mi West 15.0 mph - N/A   Partly Cloudy